{"data":{"norad_id":68913,"epoch":"2026-09-19T08:07:05.104128Z","epoch_age_seconds":115683,"freshness":"FRESH","line1":"1 68913U 26097U   26262.33825352  .00012305  00000+0  38290-3 0  9995","line2":"2 68913  97.2853  96.4946 0001995  85.6335 274.5135 15.33440094 21918","mean_motion":15.33440094,"eccentricity":0.0001995,"inclination_deg":97.2853,"raan_deg":96.4946,"arg_perigee_deg":85.6335,"mean_anomaly_deg":274.5135,"bstar":0.0003829,"rev_number":2191,"period_min":93.906505094942,"perigee_km":464.1924542145,"apogee_km":466.92308842826,"semimajor_km":6843.6947713214,"source":"CELESTRAK","updated_at":"2026-09-20T09:00:44.049788Z"}}